GEFSMA_con_prob3kmehi_276.txt.gz
EHI
11 11 12 11 8 6 7 7 6 6 5 3 1 1 1 2 2 2 1 0 0 0 0 0 0 0 0 0 0 0 0 0 0 0 0 0 0 0 0 1 2 2 1
16 14 13 11 7 5 6 6 5 5 5 3 2 2 2 2 3 3 1 0 0 0 0 1 2 1 1 1 1 0 0 0 0 0 0 0 0 0 0 1 1 1 0
19 17 14 11 7 5 6 6 5 4 3 3 3 4 4 4 4 4 3 1 1 1 2 4 4 4 3 2 1 1 1 1 0 0 0 0 0 0 0 0 0 0 0
17 17 15 10 8 7 6 6 5 4 3 4 5 5 6 6 6 6 5 3 4 4 4 4 4 4 3 2 1 1 1 1 0 0 0 0 0 0 0 0 0 0 0
14 14 12 9 7 7 5 6 7 6 5 5 5 4 5 7 7 6 5 5 7 8 7 5 4 3 3 2 1 1 1 1 0 1 1 0 0 0 0 0 0 0 0
12 11 10 8 7 6 6 7 9 8 6 7 4 2 4 5 5 6 7 8 10 11 11 9 7 4 3 3 2 2 2 1 1 2 2 1 0 0 0 0 0 0 0
10 9 9 9 9 8 6 7 8 7 7 7 4 2 3 3 4 6 8 11 12 12 13 12 10 7 6 5 4 3 3 3 3 4 4 2 1 0 0 0 0 0 0
10 9 10 11 11 10 7 6 6 5 6 5 3 2 2 2 4 5 7 10 12 12 12 11 11 10 9 8 5 3 3 3 4 5 5 4 3 1 0 0 0 0 0
11 11 12 12 11 11 9 8 6 4 4 4 3 2 1 1 2 4 6 8 8 9 9 9 11 12 11 10 8 6 4 4 4 5 6 6 5 3 2 0 0 0 0
12 11 11 12 12 13 12 10 9 8 6 5 4 3 2 2 3 5 6 6 6 6 7 9 11 12 12 11 10 9 7 5 4 5 6 6 5 5 4 2 1 1 0
15 11 10 12 14 15 14 12 11 11 11 10 8 6 5 4 4 6 7 7 6 6 8 10 11 12 13 12 11 10 8 5 4 4 5 4 4 4 5 4 3 2 1
15 12 10 11 14 15 15 15 14 13 14 13 11 9 9 7 6 7 8 7 5 6 8 10 11 12 13 13 12 9 7 5 4 3 4 3 3 4 4 4 3 2 1
16 16 15 15 16 16 15 16 18 18 17 13 11 11 11 9 8 8 7 6 5 5 6 9 12 12 12 14 11 8 6 5 4 3 3 3 4 4 3 3 2 1 1
14 19 22 22 20 17 15 17 20 20 18 14 12 12 10 9 9 8 6 6 6 5 5 8 12 14 14 13 10 6 5 4 3 3 3 3 3 3 2 1 1 1 0
13 19 24 24 22 18 15 15 16 15 14 13 11 10 9 8 8 7 6 7 7 6 5 5 9 12 13 11 8 8 7 5 3 3 3 3 2 1 1 0 0 0 0
16 18 20 20 20 18 16 15 13 10 9 9 8 8 9 9 7 5 5 7 9 8 5 5 7 10 12 10 9 11 11 7 4 3 2 1 1 0 0 0 0 0 0
19 19 18 16 17 17 16 16 14 9 7 7 8 9 9 8 6 4 4 6 8 8 7 7 8 10 12 12 11 13 12 8 5 3 2 0 0 0 0 0 0 0 0
23 22 20 18 16 16 14 14 13 11 8 8 10 10 9 8 7 7 7 7 7 8 10 11 12 12 13 13 13 12 10 7 5 3 2 0 0 0 0 0 0 0 0
24 23 21 20 17 14 12 12 12 12 11 9 10 13 13 11 10 11 11 10 8 8 11 13 13 13 13 13 12 11 8 6 5 3 2 1 1 0 0 0 0 0 0
22 21 20 18 14 11 11 12 12 13 11 10 11 14 17 16 13 12 12 11 10 9 11 13 12 12 11 11 11 10 8 6 5 4 3 3 2 1 0 0 0 0 0
21 20 19 16 12 9 10 11 13 12 12 13 13 13 16 16 13 10 9 10 10 11 11 11 10 10 10 10 10 11 10 7 5 5 5 4 3 2 1 0 0 0 0
22 22 22 18 12 8 7 9 11 12 14 17 17 14 13 13 12 9 7 6 7 8 9 9 9 10 10 10 10 11 10 8 5 5 6 5 5 5 3 1 0 0 0
26 25 25 22 16 9 5 5 7 11 16 19 19 17 15 14 13 12 9 7 6 6 6 6 7 10 11 11 9 8 9 7 5 6 6 6 6 6 5 3 1 0 0
27 25 25 25 20 12 6 2 4 10 16 18 19 18 17 15 15 15 14 12 11 9 6 4 6 7 7 7 6 5 6 6 5 6 7 6 6 6 6 5 3 1 0
25 24 25 25 23 16 8 2 4 11 15 17 17 16 15 14 14 13 14 16 14 12 8 6 4 2 2 2 3 3 5 6 6 8 9 8 6 4 5 5 4 1 0
26 25 25 26 24 18 10 3 4 10 15 16 15 13 12 12 11 11 13 16 15 12 10 6 3 1 0 0 1 3 5 7 8 9 11 11 7 4 4 5 4 1 0

GEFSMA_con_prob3kmehi_282.txt.gz
EHI
0 0 0 0 0 0 0 0 0 0 0 0 0 0 0 0 0 0 1 2 2 3 5 6 5 2 1 1 1 0 0 0 0 0 0 0 0 0 0 0 0 0 0
0 0 0 0 0 0 0 0 0 0 0 0 0 0 0 0 0 0 0 1 1 2 4 5 4 3 2 2 1 0 0 0 0 0 0 0 0 0 0 0 0 0 0
0 0 0 0 0 0 0 0 0 0 0 0 0 0 0 0 0 0 0 0 0 1 1 2 2 1 1 1 1 1 1 0 0 0 0 0 0 0 0 0 0 0 0
0 0 0 0 0 0 0 0 0 0 0 0 0 0 0 0 0 0 0 0 0 0 0 0 1 1 1 1 1 1 1 0 0 0 0 0 0 0 0 0 0 0 0
0 0 0 0 0 0 0 0 0 0 0 0 0 0 0 0 1 2 1 1 1 0 0 1 2 3 2 2 2 2 1 0 0 0 0 0 0 1 1 0 0 0 0
1 0 0 0 0 0 0 0 0 0 0 0 0 0 0 0 1 2 2 2 2 1 1 1 2 2 3 4 4 2 1 0 0 1 1 0 0 1 2 1 0 0 0
2 1 0 0 0 0 0 0 0 0 0 0 0 0 0 0 0 1 1 1 2 3 2 2 2 1 2 3 4 3 2 1 1 2 2 1 1 2 2 1 0 0 0
2 1 0 0 0 0 0 0 0 0 0 0 0 0 0 0 0 0 0 1 2 3 3 3 3 1 1 1 2 2 3 3 3 3 3 3 2 3 3 2 1 0 0
1 1 0 0 0 0 0 0 0 0 0 0 0 0 0 0 0 0 0 1 2 3 3 3 3 3 2 1 0 1 2 3 3 3 3 3 3 3 3 3 2 1 1
1 1 1 1 2 1 1 1 0 0 0 0 0 0 0 0 0 0 0 1 1 2 3 3 3 3 3 2 1 1 1 2 3 3 3 3 3 3 3 3 3 3 2
2 3 3 3 3 3 2 2 1 1 1 1 0 0 0 0 0 0 0 1 1 1 2 3 3 3 3 3 3 2 1 2 2 2 3 3 3 3 3 3 3 3 3
2 3 4 4 3 3 3 3 3 2 2 2 1 0 0 0 0 0 0 0 0 0 1 1 2 2 3 3 3 3 3 2 2 1 1 2 3 3 3 3 3 3 3
1 2 3 4 3 3 4 3 3 3 2 2 2 1 0 1 1 1 0 0 0 0 0 0 1 1 1 2 3 3 4 3 3 2 1 1 1 2 2 2 2 3 3
0 1 2 2 2 3 4 4 3 2 1 1 1 1 0 1 2 2 1 0 0 0 0 0 0 0 0 1 2 3 4 4 3 2 1 0 0 1 1 1 1 1 2
1 2 1 1 1 2 3 3 3 2 1 0 0 0 0 1 2 2 2 1 0 0 0 0 0 0 0 1 1 2 3 3 3 2 1 0 0 0 0 0 0 0 1
3 3 2 1 1 1 3 3 3 3 2 0 0 0 0 0 1 1 1 1 0 0 0 0 0 0 0 1 1 1 1 2 1 1 0 0 0 0 0 0 0 0 0
4 4 3 3 3 3 3 3 3 3 1 0 0 0 0 0 0 0 0 0 0 1 2 1 0 0 0 0 0 0 1 1 1 0 0 0 0 0 0 0 0 0 0
6 6 5 5 5 5 4 3 3 3 1 1 1 0 0 0 0 0 0 0 1 2 3 2 1 1 0 0 0 0 1 1 1 1 0 0 0 0 0 0 0 0 0
6 6 6 6 6 6 5 4 3 3 2 2 1 0 0 0 0 0 0 1 2 3 3 3 3 2 1 1 1 1 1 1 1 1 1 1 1 0 0 0 0 0 0
6 6 6 6 6 6 6 5 4 2 1 1 1 0 0 0 0 0 0 1 3 3 3 3 3 3 2 2 2 3 2 2 2 2 2 1 1 0 0 0 0 0 0
6 6 6 6 6 6 6 6 4 2 1 0 0 0 0 0 0 0 0 2 3 3 3 3 3 3 2 2 3 4 4 3 2 2 1 1 0 0 0 0 0 0 0
7 7 7 6 5 4 4 5 5 4 2 1 0 0 0 0 1 1 1 2 3 3 2 3 3 2 1 0 2 3 3 1 1 1 0 0 0 0 0 0 0 0 0
7 7 7 7 5 4 3 4 5 5 4 2 2 1 0 1 2 3 3 3 3 2 1 1 2 1 0 0 0 1 1 0 0 0 0 0 0 0 0 0 0 0 0
9 8 8 8 7 5 4 3 4 4 5 4 4 2 1 1 2 4 4 4 3 2 1 1 0 0 0 0 0 0 0 0 0 0 0 0 0 0 0 0 0 0 0
12 11 10 9 9 7 5 3 3 4 5 5 5 3 1 0 1 2 4 4 3 3 2 1 0 0 1 0 0 0 0 0 0 0 0 0 0 0 0 0 0 0 0
14 13 11 10 10 9 6 4 3 4 4 5 4 3 2 1 0 1 3 4 4 3 2 2 1 0 1 0 0 0 0 0 0 0 0 0 0 0 0 0 0 0 0

GEFSMA_con_prob3kmehi_288.txt.gz
EHI
0 0 0 0 0 0 0 0 0 0 0 0 0 0 0 0 0 0 0 0 0 0 1 2 2 1 0 0 0 1 2 3 2 1 0 0 0 0 0 0 0 0 0
0 0 0 0 0 0 0 0 0 0 0 0 0 0 0 0 0 0 0 0 0 0 0 1 1 0 0 0 0 0 1 2 2 1 0 0 0 0 0 0 0 0 0
0 0 0 0 0 0 0 0 0 0 0 0 0 1 0 0 0 0 0 0 0 0 0 0 0 0 0 0 0 0 0 1 1 0 0 0 0 0 0 0 0 0 0
0 0 0 0 0 0 0 0 0 0 0 0 0 0 0 0 0 0 0 0 0 0 0 0 0 0 0 0 0 0 0 0 0 0 0 0 0 0 0 0 0 0 0
0 0 0 0 0 0 0 0 0 0 0 0 0 0 0 0 0 0 0 0 0 0 0 0 0 0 0 0 0 1 1 1 0 0 0 0 0 0 0 0 0 0 0
0 0 0 0 0 0 0 0 0 0 0 0 0 0 0 0 0 0 0 0 0 0 0 0 0 0 0 0 1 2 2 2 1 1 1 0 0 0 0 0 0 0 0
0 0 0 0 0 0 0 0 0 0 0 0 0 0 0 0 0 0 0 0 0 0 0 0 0 0 0 0 1 2 3 3 3 2 2 1 1 0 0 0 0 0 0
0 0 0 0 0 0 0 0 0 0 0 0 0 0 0 0 0 0 0 0 0 0 0 0 0 0 0 0 1 2 3 3 3 3 3 3 2 1 1 0 0 0 0
0 0 0 0 0 0 0 0 0 0 0 0 0 0 0 0 0 0 0 0 0 0 0 0 0 0 0 0 0 1 3 3 3 3 3 3 4 3 3 2 0 0 0
0 0 0 0 0 0 0 0 0 0 0 0 0 0 0 0 0 0 0 0 0 0 0 0 0 0 0 0 0 1 2 3 3 3 3 4 5 5 5 4 2 1 1
0 0 0 0 0 0 0 0 0 0 0 0 0 0 0 0 0 0 0 0 0 0 0 0 0 0 0 0 0 0 1 1 2 3 3 3 4 5 6 5 4 3 2
0 0 0 0 0 0 0 0 0 0 0 0 0 0 0 0 0 0 0 0 0 0 0 0 0 0 0 0 0 0 0 0 1 1 2 3 3 4 4 4 4 3 3
0 0 0 0 0 0 0 0 0 0 0 0 0 0 0 0 0 0 0 0 0 0 0 0 0 0 0 0 0 0 0 0 0 0 1 1 2 2 3 3 3 3 3
0 0 0 0 0 0 0 0 0 0 0 0 0 0 1 1 0 0 0 0 0 1 1 0 0 0 0 0 0 0 0 0 0 0 0 0 1 1 1 2 2 2 2
1 1 0 0 0 0 0 0 0 0 0 0 0 0 1 1 1 0 0 0 0 1 2 1 1 1 0 0 0 0 0 0 0 0 0 0 0 0 0 1 1 1 1
3 3 2 1 0 0 0 0 0 0 0 0 0 1 1 1 1 0 0 0 0 1 2 2 2 1 1 1 0 0 0 0 0 0 0 0 0 0 0 0 0 0 0
5 5 5 4 2 1 0 0 0 0 0 0 1 1 0 0 0 0 0 0 0 0 1 1 1 1 2 2 1 1 0 0 0 0 0 0 0 0 0 0 0 0 0
6 6 6 6 4 3 1 1 1 1 1 1 1 1 0 0 0 0 0 0 0 0 0 1 1 1 3 3 3 2 1 1 0 0 0 0 0 0 0 0 0 0 0
7 7 6 6 6 5 4 3 3 2 2 2 1 0 0 0 0 0 0 0 0 0 1 2 2 3 3 3 3 3 3 2 1 0 0 0 0 0 0 0 0 0 0
7 6 6 6 6 6 6 5 4 3 2 1 0 0 0 0 0 0 0 0 0 0 1 3 3 3 3 3 3 4 4 3 2 1 0 0 0 0 0 0 0 0 0
6 6 5 4 5 6 6 5 5 3 2 1 0 0 0 0 0 0 0 0 0 1 2 3 3 3 3 3 3 4 5 4 3 2 0 0 0 0 0 0 0 0 0
6 6 4 3 4 5 4 4 4 3 3 2 1 0 0 0 0 0 0 0 0 1 2 3 3 3 3 3 3 4 4 3 3 1 0 0 0 0 0 0 0 0 0
8 7 5 4 4 4 3 3 3 3 3 3 2 1 0 0 0 0 0 0 0 0 1 2 3 3 3 3 3 3 3 3 2 1 0 0 0 0 0 0 0 0 0
9 8 6 4 4 3 3 3 3 3 3 4 3 1 0 0 0 0 0 0 0 0 0 1 2 2 2 3 3 3 3 3 2 1 0 0 0 0 0 0 0 0 0
8 8 6 4 4 4 3 1 1 3 4 5 4 2 0 0 0 0 0 0 0 0 0 0 1 1 1 1 2 3 3 3 3 1 0 0 0 0 0 0 0 0 0
8 7 6 4 4 4 3 1 1 2 4 5 5 3 1 0 0 0 0 0 0 1 1 1 0 0 0 0 1 3 3 3 3 2 1 0 0 0 0 0 0 0 0

GEFSMA_con_prob3kmehi_294.txt.gz
EHI
0 0 0 0 1 2 3 3 2 1 0 0 0 0 0 0 0 0 1 1 1 0 0 0 0 0 0 0 0 0 0 1 2 2 1 2 2 3 3 3 3 1 0
0 0 0 0 1 1 2 2 1 0 0 0 0 0 0 0 0 0 0 0 0 0 0 0 0 0 0 0 0 0 0 0 1 1 0 1 1 2 2 2 2 1 1
1 1 0 0 0 1 1 1 0 0 0 0 0 0 0 0 0 0 0 0 0 0 1 1 0 0 0 0 0 0 0 0 0 0 0 0 0 1 1 1 1 1 0
2 2 1 0 0 0 1 0 0 0 0 0 0 0 0 0 0 0 0 0 0 0 1 2 1 1 0 0 0 0 0 0 0 0 0 0 0 0 0 0 0 0 0
3 2 1 0 0 0 0 0 0 0 0 0 0 0 0 0 0 0 0 0 0 0 1 2 2 2 1 0 0 0 0 0 0 0 0 0 0 0 0 0 0 0 0
4 3 2 1 1 0 0 0 0 0 0 0 0 0 0 0 0 0 0 0 0 0 0 1 2 2 1 1 1 1 1 1 1 1 0 0 0 0 0 0 0 0 0
4 4 4 3 1 0 0 1 1 1 0 0 0 1 0 0 0 0 0 0 0 1 1 1 2 2 2 2 2 2 2 2 2 2 1 1 1 0 0 0 0 0 0
4 3 4 3 1 0 1 1 0 0 0 0 0 0 0 0 0 0 0 0 0 1 2 3 3 3 3 4 4 3 3 3 3 3 3 3 2 1 1 0 0 0 0
4 4 4 2 1 0 1 0 0 0 0 0 0 0 0 0 0 0 0 0 0 1 2 3 3 3 4 4 4 4 3 3 3 4 4 4 4 3 2 1 1 1 0
7 6 5 3 1 0 0 0 0 0 0 0 0 0 0 1 1 0 0 0 0 1 1 1 2 3 3 4 5 4 3 3 4 4 4 4 4 4 3 3 2 2 1
9 7 5 4 2 1 0 0 0 0 0 0 0 0 1 2 2 1 1 0 0 0 0 0 1 1 2 4 4 4 3 3 3 4 4 4 4 3 3 3 3 3 3
10 8 5 4 4 2 2 2 2 1 1 1 2 1 1 2 3 3 3 1 0 0 0 0 0 1 1 2 3 3 2 2 2 3 3 3 3 3 3 3 3 3 3
9 8 6 5 5 5 5 6 6 4 3 3 3 4 3 3 3 4 5 3 1 0 0 0 0 1 1 1 2 1 1 1 1 1 1 1 2 3 3 3 3 3 3
9 8 7 6 6 6 7 9 9 8 6 5 4 5 4 3 4 5 7 6 2 0 0 0 0 0 0 1 1 1 0 0 0 0 0 0 1 1 2 2 3 3 3
11 10 8 7 7 7 9 10 12 11 10 8 6 6 5 3 4 5 7 7 5 2 1 1 0 0 0 0 1 1 1 2 1 0 0 0 0 0 1 1 1 2 2
15 13 11 9 8 9 11 11 12 12 11 10 8 7 6 5 5 5 5 5 6 4 3 1 0 1 1 1 1 2 3 5 4 1 0 0 0 0 0 0 0 1 1
16 15 13 11 11 11 12 12 12 12 11 9 8 7 7 8 7 6 4 4 4 4 2 1 1 2 3 3 2 3 4 5 5 2 0 0 0 0 0 0 0 0 0
16 15 13 12 10 10 11 11 12 12 11 8 6 6 6 8 9 7 6 4 3 2 2 2 2 3 4 4 3 3 3 4 3 1 0 0 0 0 0 0 0 0 0
17 15 13 11 9 7 8 10 12 12 10 7 5 4 5 8 8 7 6 5 3 2 2 2 3 4 5 5 5 4 5 6 3 0 0 0 0 0 0 0 0 0 0
17 17 15 12 10 9 9 10 12 12 10 6 4 4 5 7 7 6 5 5 5 3 2 2 2 4 6 7 6 6 8 8 6 3 2 1 0 1 1 0 0 0 0
20 21 19 16 14 12 10 10 11 11 10 8 5 5 5 6 6 5 4 4 4 5 4 2 1 2 6 9 8 8 9 10 8 6 5 3 2 2 2 1 0 0 0
22 23 21 19 16 12 8 7 7 8 10 10 9 8 6 5 5 4 2 1 2 4 4 3 1 3 8 12 12 10 12 13 11 8 7 6 4 3 3 2 0 0 0
20 20 20 18 15 11 5 2 2 3 6 9 12 12 10 7 6 6 5 3 2 2 2 3 4 7 11 14 14 13 13 14 12 9 7 7 5 4 3 1 0 0 0
19 19 18 16 15 11 5 1 1 2 4 8 12 14 14 12 9 10 10 8 7 5 2 2 6 8 10 12 14 14 14 12 10 8 7 7 5 3 2 1 0 0 0
21 20 18 17 17 13 5 1 2 5 8 10 13 14 15 13 10 9 11 13 12 10 6 3 3 4 5 6 10 12 13 12 10 8 8 8 5 4 4 3 1 0 0
22 20 18 18 18 13 5 0 3 8 12 14 15 15 13 12 9 7 11 15 14 13 11 5 1 1 1 2 5 10 13 13 10 8 9 9 6 6 6 5 2 0 0

GEFSMA_con_prob3kmehi_300.txt.gz
EHI
4 4 5 4 4 6 8 9 8 6 4 4 4 2 1 2 5 6 6 7 8 7 5 6 5 4 3 2 1 1 1 2 2 2 2 2 3 5 5 4 3 4 4
5 5 5 5 4 6 9 9 8 7 5 4 4 4 3 3 5 7 7 8 10 10 9 7 6 5 5 5 3 1 1 2 2 2 2 1 2 3 4 3 3 3 4
7 7 7 7 6 8 10 10 8 6 5 3 4 5 5 6 7 8 9 9 11 13 13 11 9 7 7 6 4 1 1 1 1 1 2 1 0 1 1 2 2 2 2
8 10 10 9 9 10 10 8 7 6 5 4 5 6 7 7 8 9 11 12 12 13 14 14 11 10 8 7 5 2 1 0 0 1 1 1 0 0 0 1 1 0 1
10 12 12 10 9 8 6 5 6 6 6 7 6 6 7 6 7 8 11 12 12 11 12 13 13 11 9 9 7 5 3 2 2 1 1 0 0 0 0 0 0 0 0
14 14 12 10 8 6 4 4 5 6 8 7 6 5 6 6 7 9 10 9 9 10 10 12 13 11 10 10 9 9 8 6 5 4 2 1 0 0 0 0 0 0 0
13 12 11 10 9 7 6 5 4 5 5 4 2 3 6 8 8 10 10 9 9 10 11 12 13 13 11 10 10 10 10 10 9 7 5 4 2 1 0 0 0 0 0
13 12 12 12 10 9 9 7 5 4 2 1 0 1 3 6 8 9 11 10 11 12 11 12 13 13 13 11 10 10 11 11 11 9 8 7 5 3 2 1 1 0 0
15 14 14 11 8 7 9 9 7 5 3 1 1 2 3 5 6 8 10 10 11 12 11 11 11 12 13 12 10 9 9 9 9 9 9 9 7 5 4 3 2 1 1
17 17 16 13 9 7 8 9 9 6 4 3 4 6 7 8 8 8 8 8 8 9 11 11 11 11 12 12 11 8 7 6 6 8 10 9 7 5 4 4 3 3 2
19 20 20 18 14 12 11 10 10 10 9 7 7 9 10 12 12 9 7 6 5 5 8 10 11 10 12 13 11 8 6 4 4 6 8 7 6 4 4 4 3 3 3
19 21 22 20 17 17 16 13 12 14 14 12 11 11 11 13 13 9 5 5 5 4 5 7 7 6 9 11 10 8 6 4 4 4 5 5 5 4 3 3 3 3 3
20 23 23 20 19 18 16 14 13 15 15 15 14 13 13 13 13 9 6 5 4 3 4 5 3 2 5 8 8 7 5 4 3 2 2 3 3 3 2 2 2 3 3
24 25 25 23 21 18 15 14 13 13 14 14 14 14 13 13 13 9 6 5 3 2 3 3 2 2 4 7 6 5 4 4 3 1 0 1 1 1 0 1 1 1 2
29 29 27 24 23 21 18 16 14 13 13 13 13 14 13 12 10 7 5 4 2 2 3 4 4 4 5 6 5 4 3 3 3 2 1 0 0 0 0 0 0 0 1
35 31 26 23 22 22 20 18 16 14 12 12 13 14 14 12 9 6 4 3 3 2 3 5 7 7 6 4 4 4 4 4 4 3 1 0 0 0 0 0 0 0 0
39 34 27 23 21 20 20 19 17 14 12 12 13 14 13 12 10 7 5 4 3 3 4 6 8 8 8 7 7 7 5 4 4 3 2 1 0 0 0 0 0 0 0
40 36 30 26 23 21 20 19 17 14 12 11 12 13 11 11 10 8 6 4 3 3 4 6 7 7 9 11 12 10 5 3 2 2 2 2 1 0 0 0 0 0 0
39 38 34 29 26 24 22 21 18 15 13 12 12 13 12 11 12 11 9 6 5 5 5 5 5 5 7 11 15 12 8 5 2 2 3 2 1 0 0 0 0 0 0
37 37 33 28 25 24 23 22 20 17 14 14 14 14 15 15 15 14 11 8 7 7 6 5 5 4 4 10 15 15 12 9 6 5 5 4 1 0 0 0 0 0 0
37 36 31 25 21 20 19 19 17 16 16 16 16 17 17 16 15 13 9 7 8 8 8 5 5 5 5 9 13 13 12 12 11 9 9 7 4 2 2 1 0 0 0
39 37 30 23 19 15 12 11 11 13 16 17 18 18 16 14 13 12 9 7 6 7 8 7 7 7 8 11 13 11 11 13 13 13 12 11 8 6 5 3 1 0 0
41 36 29 24 20 14 8 4 5 10 14 17 18 19 15 13 13 15 13 10 9 8 8 8 8 10 12 14 14 13 13 14 15 14 13 12 10 8 6 3 1 0 0
40 35 28 25 22 15 6 1 2 6 12 16 17 18 16 13 14 15 14 12 13 11 7 5 7 9 11 11 12 12 13 13 13 12 12 13 12 9 6 3 1 0 0
37 34 30 27 25 18 7 0 1 5 10 15 18 18 17 14 11 11 11 12 13 12 8 4 4 5 6 5 6 9 10 10 10 11 12 15 15 12 8 4 1 0 0
36 33 31 29 28 21 8 1 1 5 10 15 19 19 16 13 9 8 10 11 11 10 8 5 2 2 2 2 3 6 9 9 8 10 12 15 17 15 10 6 2 1 0